Location: Balsareny
(41.8670°N, 1.8830°E)
Time: 09:54:50
(UTC+01:00)

N. Korean satellite - Visible Passes

Search period start: 17 February 2019 00:00
Search period end: 27 February 2019 00:00
Orbit: 457 x 510 km, 97.2° (Epoch: 16 February)

Date Brightness Start Highest point End Pass type
(mag) Time Alt. Az. Time Alt. Az. Time Alt. Az.
17 Feb 7.5 06:51:53 10° NNE 06:55:17 51° E 06:58:38 10° S visible
17 Feb 9.5 19:01:25 10° SSW 19:04:27 24° W 19:07:29 10° NW visible
18 Feb 9.1 06:27:35 10° NE 06:30:27 24° E 06:33:18 10° SSE visible
19 Feb 10.2 06:04:11 10° ENE 06:05:32 12° E 06:06:54 10° ESE visible
20 Feb 6.4 07:11:02 10° N 07:14:30 83° WNW 07:17:55 10° SSW visible
20 Feb 10.2 19:21:48 10° SW 19:23:48 14° W 19:25:48 10° WNW visible
21 Feb 7.9 06:46:25 10° NNE 06:49:44 43° E 06:53:00 10° S visible
22 Feb 9.4 06:22:13 10° NE 06:24:52 20° E 06:27:30 10° SE visible
23 Feb 10.4 05:59:46 10° E 05:59:55 10° E 06:00:05 10° E visible
24 Feb 6.6 07:05:27 10° NNE 07:08:55 83° ESE 07:12:20 10° S visible
24 Feb 10.1 19:15:54 10° SW 19:18:13 16° W 19:20:31 10° NW visible
25 Feb 8.3 06:40:54 10° NNE 06:44:08 36° E 06:47:19 10° SSE visible
26 Feb 9.7 06:16:51 10° NE 06:19:15 18° E 06:21:38 10° SE visible
